Regional Weather Roundup
Issued by NWS State College, PA

Home | Current Version | Previous Version | Text Only | Print | Product List | Glossary On
Versions: 1 2 3 4 5 6 7 8 9 10 11 12 13 14 15 16 17 18 19 20 21 22 23 24 25 26 27 28 29 30 31 32 33 34 35 36 37 38 39 40 41 42 43 44 45 46 47 48 49 50
000
ASUS41 KCTP 241810
RWRCTP

REGIONAL WEATHER ROUNDUP
NATIONAL WEATHER SERVICE STATE COLLEGE PA
200 PM EDT SUN MAY 24 2015

Note: "fair" indicates few or no clouds below 12,000 feet with no
significant weather and/or obstructions to visibility.

* = STATION THAT DOES NOT REPORT PRECIPITATION /E.G. RAIN...SNOW...ETC/
    THUNDER OR FOG.

PAZ002>004-007>009-013>016-020>023-029>032-241900-
WESTERN PENNSYLVANIA

CITY           SKY/WX    TMP DP  RH WIND       PRES   REMARKS
ERIE           MOSUNNY   78  43  28 W10       30.27F
MEADVILLE      MOSUNNY   77  46  33 SW9       30.29F
FRANKLIN*      MOSUNNY   75  45  33 SW8       30.31F
NEW CASTLE     FAIR      80  47  31 SE7       30.30F
BEAVER COUNTY  NOT AVBL
BUTLER*        SUNNY     77  45  31 S6        30.32F
PITTSBURGH INT MOSUNNY   78  41  26 S12       30.30F
PITTSBURGH     MOSUNNY   77  32  19 SW10      30.30F
INDIANA*       SUNNY     75  45  33 CALM      30.35F
LATROBE        MOSUNNY   77  41  27 SW9       30.32F
WASHINGTON CO* MOSUNNY   79  45  29 SW5       30.32F
$$

PAZ004>006-010>012-017>019-024>028-033>037-041-042-045-046-049>053-241900-
CENTRAL PENNSYLVANIA

CITY           SKY/WX    TMP DP  RH WIND       PRES   REMARKS
BRADFORD       MOSUNNY   73  40  30 CALM      30.31F
DUBOIS         MOSUNNY   77  43  29 VRB7      30.31F
CLEARFIELD     MOSUNNY   76  42  29 SW14      30.31F
JOHNSTOWN      PTSUNNY   73  40  30 VRB5      30.34F
ALTOONA        PTSUNNY   77  38  24 VRB6      30.33F
STATE COLLEGE  MOSUNNY   79  45  29 W10       30.30F
WILLIAMSPORT   MOSUNNY   78  44  29 SW7       30.27F
SELINSGROVE    PTSUNNY   80  46  30 VRB6      30.30F
FT INDIANTOWN  MOSUNNY   78  45  31 SW12      30.30F
CAPITAL CITY   MOSUNNY   77  37  23 CALM      30.30F
HARRISBURG     PTSUNNY   78  46  32 S5        30.30F
YORK           SUNNY     77  40  26 MISG      30.32F
$$

PAZ038>040-043-044-047-048-054-055-060>062-067>071-241900-
EASTERN PENNSYLVANIA

CITY           SKY/WX    TMP DP  RH WIND       PRES   REMARKS
SCRANTON       SUNNY     78  37  22 SW10G18   30.28F
MOUNT POCONO   SUNNY     73  32  22 NW10G20   30.32F
ALLENTOWN      MOSUNNY   80  38  22 SW14      30.29F
QUAKERTOWN*    CLEAR     77  37  24 SW9       30.31F
READING        MOSUNNY   79  41  25 SW6       30.29F
LANCASTER      MOSUNNY   77  41  27 NW6       30.31F
COATESVILLE    PTCLDY    75  46  35 W6        30.33F
POTTSTOWN      MOSUNNY   78  39  24 VRB7      30.32F
BLUE BELL      MOSUNNY   81  46  30 SW5       30.30F
DOYLESTOWN     SUNNY     77  39  25 VRB6      30.29F
WILLOW GROVE   NOT AVBL
NORTH PHILA    MOSUNNY   79  46  31 SW12G17   30.32F
PHILADELPHIA   PTSUNNY   77  51  40 SW13      30.32F
$$


USA.gov is the U.S. government's official web portal to all federal, state and local government web resources and services.